FW2035 Weather Reports


Display with metric or nautical units.
time (UTC)temp
F
wind
direction
speed
MPH
gust
MPH
rain 1hr
in
rain 24hr
in
rain mn
in
humidity
%
barometer
mb
20210625123841 77 360 4.0 14.0 0.00 0.00 0.00 91 1013.7
20210625122839 77 360 5.0 14.0 0.00 0.00 0.00 91 1013.6
20210625121839 77 360 8.0 13.0 0.00 0.00 0.00 91 1013.5
20210625120837 77 360 9.0 13.0 0.00 0.00 0.00 91 1013.5
20210625115837 77 360 5.0 14.0 0.00 0.00 0.00 91 1013.5
20210625114836 77 360 8.0 12.0 0.00 0.00 0.00 91 1013.3
20210625113835 77 360 5.0 10.0 0.00 0.00 0.00 91 1013.3
20210625112834 77 360 8.0 12.0 0.00 0.00 0.00 91 1013.3
20210625111833 77 360 11.0 11.0 0.00 0.00 0.00 91 1013.3
20210625110833 77 360 3.0 11.0 0.00 0.00 0.00 91 1013.3
20210625105831 77 360 5.0 11.0 0.00 0.00 0.00 91 1013.2
20210625104830 77 360 8.0 12.0 0.00 0.00 0.00 91 1013.1
20210625103829 77 360 5.0 12.0 0.00 0.00 0.00 91 1013.1
20210625102828 77 360 6.0 9.0 0.00 0.00 0.00 91 1013.2
20210625101827 77 360 5.0 12.0 0.00 0.00 0.00 90 1013.2
20210625100826 77 360 3.0 13.0 0.00 0.00 0.00 90 1013.1
20210625095825 78 360 13.0 15.0 0.00 0.00 0.00 90 1013.1
20210625094824 78 360 9.0 15.0 0.00 0.00 0.00 90 1013.1
20210625093823 78 360 9.0 14.0 0.00 0.00 0.00 90 1013.1
20210625092822 78 360 11.0 14.0 0.00 0.00 0.00 89 1013.2
20210625091821 78 360 13.0 17.0 0.00 0.00 0.00 89 1013.3
20210625090820 78 360 9.0 14.0 0.00 0.00 0.00 89 1013.2
20210625085819 78 360 6.0 18.0 0.00 0.00 0.00 89 1013.3
20210625084818 78 360 10.0 16.0 0.00 0.00 0.00 88 1013.3
20210625083817 78 360 11.0 19.0 0.00 0.00 0.00 88 1013.2
20210625082816 78 360 14.0 17.0 0.00 0.00 0.00 88 1013.1
20210625081815 78 184 14.0 14.0 0.00 0.00 0.00 88 1013.2
20210625080814 78 153 8.0 19.0 0.00 0.00 0.00 88 1013.1
20210625075813 78 194 8.0 23.0 0.00 0.00 0.00 88 1013.0
20210625074812 78 360 14.0 17.0 0.00 0.00 0.00 88 1013.1
20210625073812 78 360 6.0 18.0 0.00 0.00 0.00 88 1013.0
20210625072810 78 360 6.0 19.0 0.00 0.00 0.00 88 1013.1
20210625071809 78 360 10.0 17.0 0.00 0.00 0.00 88 1012.9
20210625070808 78 360 10.0 17.0 0.00 0.00 0.00 87 1013.1
20210625065807 79 360 14.0 19.0 0.00 0.00 0.00 87 1013.2
20210625064806 79 360 3.0 17.0 0.00 0.00 0.00 87 1013.0
20210625063806 79 360 10.0 17.0 0.00 0.00 0.00 86 1013.0
20210625062805 79 360 11.0 16.0 0.00 0.00 0.00 86 1013.1
20210625061803 79 360 8.0 22.0 0.00 0.00 0.00 86 1013.3
20210625060802 80 179 11.0 22.0 0.00 0.00 0.00 85 1013.2
20210625055802 80 146 11.0 23.0 0.00 0.00 0.00 84 1013.1
20210625054801 80 360 13.0 22.0 0.00 0.00 0.00 84 1013.1
20210625053800 80 360 16.0 21.0 0.00 0.00 0.00 84 1013.1
20210625052759 80 188 8.0 26.0 0.00 0.00 0.00 84 1013.2
20210625051758 81 169 7.0 21.0 0.00 0.00 0.00 83 1013.3
20210625050756 81 360 11.0 21.0 0.00 0.00 0.00 83 1013.4
20210625045756 81 360 12.0 18.0 0.00 0.00 0.00 83 1013.4
20210625044754 81 360 16.0 23.0 0.00 0.00 0.00 82 1013.4
20210625043753 82 360 14.0 20.0 0.00 0.00 0.00 82 1013.3
20210625042752 82 360 10.0 21.0 0.00 0.00 0.00 81 1013.2
20210625041752 82 360 17.0 21.0 0.00 0.00 0.00 81 1013.1
20210625040750 83 360 10.0 21.0 0.00 0.00 0.00 80 1013.0
20210625035749 83 360 18.0 21.0 0.00 0.00 0.00 80 1012.9
20210625034749 84 360 6.0 20.0 0.00 0.00 0.00 79 1012.6
20210625033748 84 360 17.0 22.0 0.00 0.00 0.00 78 1012.3
20210625032747 85 360 11.0 18.0 0.00 0.00 0.00 76 1012.2
20210625031746 86 360 9.0 19.0 0.00 0.00 0.00 74 1012.1
20210625030744 87 360 14.0 17.0 0.00 0.00 0.00 71 1012.0
20210625025744 87 360 8.0 22.0 0.00 0.00 0.00 71 1011.9
20210625024743 87 360 17.0 20.0 0.00 0.00 0.00 70 1011.9
20210625023742 88 360 6.0 23.0 0.00 0.00 0.00 69 1011.8
20210625022741 88 360 10.0 17.0 0.00 0.00 0.00 69 1011.7
20210625021740 88 174 9.0 25.0 0.00 0.00 0.00 68 1011.5
20210625020739 89 157 16.0 19.0 0.00 0.00 0.00 68 1011.7
20210625015738 89 360 9.0 18.0 0.00 0.00 0.00 67 1011.6
20210625014737 89 360 16.0 19.0 0.00 0.00 0.00 68 1011.7
20210625013736 88 360 11.0 20.0 0.00 0.00 0.00 69 1011.6
20210625012735 88 360 15.0 21.0 0.00 0.00 0.00 68 1011.5
20210625011734 89 360 16.0 19.0 0.00 0.00 0.00 67 1011.4
20210625010733 89 159 14.0 21.0 0.00 0.00 0.00 66 1011.4
20210625005732 90 153 13.0 17.0 0.00 0.00 0.00 65 1011.2
20210625004731 90 360 9.0 24.0 0.00 0.00 0.00 63 1011.2
20210625003730 90 360 14.0 21.0 0.00 0.00 0.00 64 1011.1
20210625002729 91 139 8.0 15.0 0.00 0.00 0.00 63 1011.1
20210625001728 91 360 9.0 17.0 0.00 0.00 0.00 63 1010.9
20210625000727 91 360 13.0 20.0 0.00 0.00 0.00 61 1011.0
20210624235726 92 166 9.0 19.0 0.00 0.00 0.00 60 1010.9
20210624234725 92 158 11.0 19.0 0.00 0.00 0.00 59 1011.0
20210624233724 93 360 14.0 19.0 0.00 0.00 0.00 59 1010.8
20210624232723 93 120 9.0 16.0 0.00 0.00 0.00 58 1010.8
20210624231722 93 178 14.0 19.0 0.00 0.00 0.00 58 1010.9
20210624230721 93 186 6.0 16.0 0.00 0.00 0.00 57 1010.9
20210624225720 93 360 5.0 20.0 0.00 0.00 0.00 57 1011.0
20210624224719 94 146 8.0 21.0 0.00 0.00 0.00 55 1011.0
20210624223718 94 167 21.0 21.0 0.00 0.00 0.00 56 1011.1
20210624222717 93 198 5.0 16.0 0.00 0.00 0.00 56 1011.3
20210624221716 94 360 10.0 21.0 0.00 0.00 0.00 55 1011.3
20210624220715 94 203 7.0 18.0 0.00 0.00 0.00 55 1011.3
20210624215715 93 360 6.0 15.0 0.00 0.00 0.00 56 1011.4
20210624214713 94 156 9.0 17.0 0.00 0.00 0.00 55 1011.4
20210624213712 95 121 15.0 17.0 0.00 0.00 0.00 54 1011.6
20210624212711 95 159 9.0 16.0 0.00 0.00 0.00 54 1011.7
20210624211710 94 159 6.0 14.0 0.00 0.00 0.00 54 1011.9
20210624210709 93 170 8.0 18.0 0.00 0.00 0.00 54 1012.0
20210624205708 94 360 11.0 15.0 0.00 0.00 0.00 53 1012.2
20210624204707 95 193 8.0 17.0 0.00 0.00 0.00 53 1012.1
20210624203707 94 360 12.0 19.0 0.00 0.00 0.00 53 1012.3
20210624202705 95 173 7.0 17.0 0.00 0.00 0.00 53 1012.2
20210624201705 95 227 6.0 20.0 0.00 0.00 0.00 55 1012.3
20210624200703 94 181 4.0 18.0 0.00 0.00 0.00 55 1012.6
20210624195703 94 196 10.0 20.0 0.00 0.00 0.00 53 1012.7
20210624194701 94 192 8.0 17.0 0.00 0.00 0.00 54 1012.7
20210624193700 94 175 12.0 16.0 0.00 0.00 0.00 55 1012.8
20210624192700 94 183 11.0 20.0 0.00 0.00 0.00 55 1012.9
20210624191659 94 202 10.0 24.0 0.00 0.00 0.00 55 1013.1
20210624190657 94 152 7.0 22.0 0.00 0.00 0.00 54 1013.4
20210624185656 93 175 6.0 21.0 0.00 0.00 0.00 57 1013.5
20210624184655 94 163 13.0 20.0 0.00 0.00 0.00 57 1013.6
20210624183655 92 360 3.0 19.0 0.00 0.00 0.00 60 1013.7
20210624182653 92 216 6.0 14.0 0.00 0.00 0.00 59 1013.9
20210624181653 92 161 6.0 17.0 0.00 0.00 0.00 62 1013.9
20210624180652 93 360 3.0 14.0 0.00 0.00 0.00 61 1013.9
20210624175650 92 205 10.0 14.0 0.00 0.00 0.00 60 1014.1
20210624174650 91 180 10.0 19.0 0.00 0.00 0.00 64 1014.3
20210624173649 92 175 4.0 20.0 0.00 0.00 0.00 63 1014.3
20210624172648 91 150 11.0 22.0 0.00 0.00 0.00 64 1014.2
20210624171647 90 152 13.0 24.0 0.00 0.00 0.00 63 1014.4
20210624170646 90 176 5.0 17.0 0.00 0.00 0.00 65 1014.4
20210624165645 90 175 15.0 21.0 0.00 0.00 0.00 66 1014.4
20210624164644 90 174 10.0 24.0 0.00 0.00 0.00 65 1014.5
20210624163643 88 228 0.0 18.0 0.00 0.00 0.00 69 1014.5
20210624162642 87 197 4.0 15.0 0.00 0.00 0.00 70 1014.6
20210624161641 88 190 11.0 16.0 0.00 0.00 0.00 70 1014.6
20210624160640 88 360 13.0 18.0 0.00 0.00 0.00 70 1014.7
20210624155639 86 205 5.0 16.0 0.00 0.00 0.00 75 1014.6
20210624154638 85 189 4.0 12.0 0.00 0.00 0.00 77 1014.8
20210624153637 84 360 4.0 12.0 0.00 0.00 0.00 76 1015.0
20210624153113 83 201 3.0 13.0 0.00 0.00 0.00 77 1014.9
20210624152112 84 221 3.0 14.0 0.00 0.00 0.00 76 1014.9
20210624151111 85 218 2.0 14.0 0.00 0.00 0.00 77 1015.1
20210624150110 84 360 4.0 15.0 0.00 0.00 0.00 79 1015.2
20210624145109 82 203 5.0 12.0 0.00 0.00 0.00 80 1015.1
20210624144108 82 360 3.0 13.0 0.00 0.00 0.00 80 1015.1
20210624143107 83 360 3.0 11.0 0.00 0.00 0.00 81 1015.1
20210624142106 82 360 11.0 18.0 0.00 0.00 0.00 81 1015.2
20210624141105 81 186 6.0 17.0 0.00 0.00 0.00 84 1015.1
20210624140104 80 360 6.0 16.0 0.00 0.00 0.00 85 1015.3
20210624135103 80 360 6.0 16.0 0.00 0.00 0.00 86 1015.1
20210624134102 79 163 6.0 13.0 0.00 0.00 0.00 88 1015.1
20210624133101 78 360 10.0 11.0 0.00 0.00 0.00 89 1015.1
20210624132100 78 360 6.0 13.0 0.00 0.00 0.00 89 1015.1
20210624131059 78 360 6.0 10.0 0.00 0.00 0.00 90 1015.0
20210624130059 78 360 3.0 10.0 0.00 0.00 0.00 90 1015.0
20210624125057 77 360 3.0 14.0 0.00 0.00 0.00 90 1014.6